Year,Month,Day,Hour,Minute,Value (Times are PST for temperature in C)
2011,09,16,07,38,10.40
2011,09,16,07,39,10.40
2011,09,16,07,40,10.50
2011,09,16,07,41,10.60
2011,09,16,07,42,10.60
2011,09,16,07,43,10.60
2011,09,16,07,44,10.70
2011,09,16,07,45,10.70
2011,09,16,07,46,10.80
2011,09,16,07,47,10.90
2011,09,16,07,48,10.90
2011,09,16,07,49,10.90
2011,09,16,07,50,11.00
2011,09,16,07,51,11.10
2011,09,16,07,52,11.10
2011,09,16,07,53,11.10
2011,09,16,07,54,11.20
2011,09,16,07,55,11.20
2011,09,16,07,56,11.30
2011,09,16,07,57,11.30
2011,09,16,07,58,11.40
2011,09,16,07,59,11.40
2011,09,16,08,00,11.50
2011,09,16,08,01,11.60
2011,09,16,08,02,11.60
2011,09,16,08,03,11.60
2011,09,16,08,04,11.60
2011,09,16,08,05,11.70
2011,09,16,08,06,11.70
2011,09,16,08,07,11.80
2011,09,16,08,08,11.80
2011,09,16,08,09,11.90
2011,09,16,08,10,12.00
2011,09,16,08,11,12.10
2011,09,16,08,12,12.20
2011,09,16,08,13,12.20
2011,09,16,08,14,12.30
2011,09,16,08,15,12.30
2011,09,16,08,16,12.40
2011,09,16,08,17,12.50
2011,09,16,08,18,12.50
2011,09,16,08,19,12.50
2011,09,16,08,20,12.60
2011,09,16,08,21,12.70
2011,09,16,08,22,12.70
2011,09,16,08,23,12.70
2011,09,16,08,24,12.70
2011,09,16,08,25,12.80
2011,09,16,08,26,12.80
2011,09,16,08,27,12.90
2011,09,16,08,28,12.90
2011,09,16,08,29,12.90
2011,09,16,08,30,13.00
2011,09,16,08,31,13.00
2011,09,16,08,32,13.00
2011,09,16,08,33,13.10
2011,09,16,08,34,13.20
2011,09,16,08,35,13.20
2011,09,16,08,36,13.30
2011,09,16,08,37,13.30
2011,09,16,08,38,13.40
2011,09,16,08,39,13.50
2011,09,16,08,40,13.50
2011,09,16,08,41,13.50
2011,09,16,08,42,13.50
2011,09,16,08,43,13.40
2011,09,16,08,44,13.40
2011,09,16,08,45,13.40
2011,09,16,08,46,13.40
2011,09,16,08,47,13.40
2011,09,16,08,48,13.40
2011,09,16,08,49,13.50
2011,09,16,08,50,13.50
2011,09,16,08,51,13.50
2011,09,16,08,52,13.50
2011,09,16,08,53,13.50
2011,09,16,08,54,13.50
2011,09,16,08,55,13.40
2011,09,16,08,56,13.40
2011,09,16,08,57,13.40
2011,09,16,08,58,13.30
2011,09,16,08,59,13.30
2011,09,16,09,00,13.30
2011,09,16,09,01,13.30
2011,09,16,09,02,13.30
2011,09,16,09,03,13.30
2011,09,16,09,04,13.30
2011,09,16,09,05,13.30
2011,09,16,09,06,13.30
2011,09,16,09,07,13.30
2011,09,16,09,08,13.30
2011,09,16,09,09,13.40
2011,09,16,09,10,13.50
2011,09,16,09,11,13.50
2011,09,16,09,12,13.60
2011,09,16,09,13,13.60
2011,09,16,09,14,13.70
2011,09,16,09,15,13.70
2011,09,16,09,16,13.80
2011,09,16,09,17,13.80
2011,09,16,09,18,13.90
2011,09,16,09,19,13.90
2011,09,16,09,20,13.90
2011,09,16,09,21,14.00
2011,09,16,09,22,14.00
2011,09,16,09,23,14.00
2011,09,16,09,24,14.00
2011,09,16,09,25,14.10
2011,09,16,09,26,14.10
2011,09,16,09,27,14.10
2011,09,16,09,28,14.10
2011,09,16,09,29,14.10
2011,09,16,09,30,14.20
2011,09,16,09,31,14.20
2011,09,16,09,32,14.20
2011,09,16,09,33,14.20
2011,09,16,09,34,14.20
2011,09,16,09,35,14.20
2011,09,16,09,36,14.20
2011,09,16,09,37,14.20
2011,09,16,09,38,14.20
2011,09,16,09,39,14.20
2011,09,16,09,40,14.20
2011,09,16,09,41,14.20
2011,09,16,09,42,14.20
2011,09,16,09,43,14.30
2011,09,16,09,44,14.30
2011,09,16,09,45,14.40
2011,09,16,09,46,14.40
2011,09,16,09,47,14.50
2011,09,16,09,48,14.50
2011,09,16,09,49,14.50
2011,09,16,09,50,14.60
2011,09,16,09,51,14.60
2011,09,16,09,52,14.60
2011,09,16,09,53,14.60
2011,09,16,09,54,14.60
2011,09,16,09,55,14.60
2011,09,16,09,56,14.60
2011,09,16,09,57,14.60
2011,09,16,09,58,14.60
2011,09,16,09,59,14.60
2011,09,16,10,00,14.60
2011,09,16,10,01,14.70
2011,09,16,10,02,14.60
2011,09,16,10,03,14.60
2011,09,16,10,04,14.60
2011,09,16,10,05,14.70
2011,09,16,10,06,14.70
2011,09,16,10,07,14.70
2011,09,16,10,08,14.70
2011,09,16,10,09,14.70
2011,09,16,10,10,14.70
2011,09,16,10,11,14.80
2011,09,16,10,12,14.80
2011,09,16,10,13,14.80
2011,09,16,10,14,14.90
2011,09,16,10,15,14.90
2011,09,16,10,16,14.90
2011,09,16,10,17,15.00
2011,09,16,10,18,15.00
2011,09,16,10,19,15.00
2011,09,16,10,20,15.00
2011,09,16,10,21,15.10
2011,09,16,10,22,15.20
2011,09,16,10,23,15.20
2011,09,16,10,24,15.30
2011,09,16,10,25,15.30
2011,09,16,10,26,15.40
2011,09,16,10,27,15.40
2011,09,16,10,28,15.40
2011,09,16,10,29,15.40
2011,09,16,10,30,15.40
2011,09,16,10,31,15.40
2011,09,16,10,32,15.40
2011,09,16,10,33,15.40
2011,09,16,10,34,15.40
2011,09,16,10,35,15.40
2011,09,16,10,36,15.50
2011,09,16,10,37,15.50
2011,09,16,10,38,15.40
2011,09,16,10,39,15.40
2011,09,16,10,40,15.40
2011,09,16,10,41,15.40
2011,09,16,10,42,15.50
2011,09,16,10,43,15.50
2011,09,16,10,44,15.60
2011,09,16,10,45,15.60
2011,09,16,10,46,15.70
2011,09,16,10,47,15.80
2011,09,16,10,48,15.80
2011,09,16,10,49,15.80
2011,09,16,10,50,15.80
2011,09,16,10,51,15.80
2011,09,16,10,52,15.90
2011,09,16,10,53,15.90
2011,09,16,10,54,15.90
2011,09,16,10,55,15.90
2011,09,16,10,56,15.90
2011,09,16,10,57,16.10
2011,09,16,10,58,16.10
2011,09,16,10,59,16.10
2011,09,16,11,00,16.10
2011,09,16,11,01,16.10
2011,09,16,11,02,16.10
2011,09,16,11,03,16.10
2011,09,16,11,04,16.20
2011,09,16,11,05,16.20
2011,09,16,11,06,16.20
2011,09,16,11,07,16.30
2011,09,16,11,08,16.20
2011,09,16,11,09,16.20
2011,09,16,11,10,16.20
2011,09,16,11,11,16.20
2011,09,16,11,12,16.20
2011,09,16,11,13,16.20
2011,09,16,11,14,16.20
2011,09,16,11,15,16.20
2011,09,16,11,16,16.30
2011,09,16,11,17,16.30
2011,09,16,11,18,16.30
2011,09,16,11,19,16.40
2011,09,16,11,20,16.40
2011,09,16,11,21,16.40
2011,09,16,11,22,16.40
2011,09,16,11,23,16.40
2011,09,16,11,24,16.40
2011,09,16,11,25,16.40
2011,09,16,11,26,16.50
2011,09,16,11,27,16.50
2011,09,16,11,28,16.40
2011,09,16,11,29,16.40
2011,09,16,11,30,16.50
2011,09,16,11,31,16.60
2011,09,16,11,32,16.60
2011,09,16,11,33,16.60
2011,09,16,11,34,16.70
2011,09,16,11,35,16.70
2011,09,16,11,36,16.70
2011,09,16,11,37,16.70
2011,09,16,11,38,16.70
2011,09,16,11,39,16.70
2011,09,16,11,40,16.70
2011,09,16,11,41,16.70
2011,09,16,11,42,16.70
2011,09,16,11,43,16.60
2011,09,16,11,44,16.50
2011,09,16,11,45,16.40
2011,09,16,11,46,16.40
2011,09,16,11,47,16.40
2011,09,16,11,48,16.40
2011,09,16,11,49,16.40
2011,09,16,11,50,16.40
2011,09,16,11,51,16.30
2011,09,16,11,52,16.30
2011,09,16,11,53,16.40
2011,09,16,11,54,16.40
2011,09,16,11,55,16.40
2011,09,16,11,56,16.40
2011,09,16,11,57,16.50
2011,09,16,11,58,16.60
2011,09,16,11,59,16.70
2011,09,16,12,00,16.70
2011,09,16,12,01,16.80
2011,09,16,12,02,16.90
2011,09,16,12,03,16.90
2011,09,16,12,04,16.90
2011,09,16,12,05,17.00
2011,09,16,12,06,17.00
2011,09,16,12,07,16.90
2011,09,16,12,08,16.90
2011,09,16,12,09,16.80
2011,09,16,12,10,16.70
2011,09,16,12,11,16.70
2011,09,16,12,12,16.70
2011,09,16,12,13,16.70
2011,09,16,12,14,16.60
2011,09,16,12,15,16.60
2011,09,16,12,16,16.60
2011,09,16,12,17,16.70
2011,09,16,12,18,16.70
2011,09,16,12,19,16.80
2011,09,16,12,20,16.80
2011,09,16,12,21,16.90
2011,09,16,12,22,16.90
2011,09,16,12,23,17.00
2011,09,16,12,24,17.10
2011,09,16,12,25,17.10
2011,09,16,12,26,17.20
2011,09,16,12,27,17.20
2011,09,16,12,28,17.20
2011,09,16,12,29,17.20
2011,09,16,12,30,17.20
2011,09,16,12,31,17.20
2011,09,16,12,32,17.20
2011,09,16,12,33,17.10
2011,09,16,12,34,17.10
2011,09,16,12,35,17.10
2011,09,16,12,36,17.10
2011,09,16,12,37,17.10
2011,09,16,12,38,17.10
2011,09,16,12,39,17.10
2011,09,16,12,40,17.20
2011,09,16,12,41,17.20
2011,09,16,12,42,17.20
2011,09,16,12,43,17.20
2011,09,16,12,44,17.10
2011,09,16,12,45,17.10
2011,09,16,12,46,17.10
2011,09,16,12,47,17.00
2011,09,16,12,48,17.00
2011,09,16,12,49,16.90
2011,09,16,12,50,16.90
2011,09,16,12,51,16.80
2011,09,16,12,52,16.80
2011,09,16,12,53,16.80
2011,09,16,12,54,16.80
2011,09,16,12,55,16.70
2011,09,16,12,56,16.70
2011,09,16,12,57,16.70
2011,09,16,12,58,16.70
2011,09,16,12,59,16.70
2011,09,16,13,00,16.80
2011,09,16,13,01,16.80
2011,09,16,13,02,16.80
2011,09,16,13,03,16.80
2011,09,16,13,04,16.80
2011,09,16,13,05,16.90
2011,09,16,13,06,16.90
2011,09,16,13,07,16.90
2011,09,16,13,08,16.90
2011,09,16,13,09,16.90
2011,09,16,13,10,16.90
2011,09,16,13,11,17.00
2011,09,16,13,12,17.00
2011,09,16,13,13,17.00
2011,09,16,13,14,17.00
2011,09,16,13,15,17.00
2011,09,16,13,16,17.00
2011,09,16,13,17,17.10
2011,09,16,13,18,17.10
2011,09,16,13,19,17.00
2011,09,16,13,20,17.00
2011,09,16,13,21,17.00
2011,09,16,13,22,17.00
2011,09,16,13,23,17.00
2011,09,16,13,24,17.00
2011,09,16,13,25,17.10
2011,09,16,13,26,17.10
2011,09,16,13,27,17.20
2011,09,16,13,28,17.20
2011,09,16,13,29,17.30
2011,09,16,13,30,17.30
2011,09,16,13,31,17.30
2011,09,16,13,32,17.30
2011,09,16,13,33,17.30
2011,09,16,13,34,17.20
2011,09,16,13,35,17.20
2011,09,16,13,36,17.20
2011,09,16,13,37,17.10
2011,09,16,13,38,17.10
2011,09,16,13,39,17.10
2011,09,16,13,40,17.10
2011,09,16,13,41,17.10
2011,09,16,13,42,17.00
2011,09,16,13,43,17.00
2011,09,16,13,44,17.00
2011,09,16,13,45,17.00
2011,09,16,13,46,16.90
2011,09,16,13,47,16.90
2011,09,16,13,48,16.90
2011,09,16,13,49,16.90
2011,09,16,13,50,16.80
2011,09,16,13,51,16.80
2011,09,16,13,52,16.80
2011,09,16,13,53,16.80
2011,09,16,13,54,16.80
2011,09,16,13,55,16.80
2011,09,16,13,56,16.70
2011,09,16,13,57,16.70
2011,09,16,13,58,16.70
2011,09,16,13,59,16.70
2011,09,16,14,00,16.80
2011,09,16,14,01,16.80
2011,09,16,14,02,16.80
2011,09,16,14,03,16.80
2011,09,16,14,04,16.80
2011,09,16,14,05,16.80
2011,09,16,14,06,16.70
2011,09,16,14,07,16.70
2011,09,16,14,08,16.70
2011,09,16,14,09,16.60
2011,09,16,14,10,16.50
2011,09,16,14,11,16.40
2011,09,16,14,12,16.40
2011,09,16,14,13,16.40
2011,09,16,14,14,16.30
2011,09,16,14,15,16.40
2011,09,16,14,16,16.30
2011,09,16,14,17,16.30
2011,09,16,14,18,16.30
2011,09,16,14,19,16.30
2011,09,16,14,20,16.20
2011,09,16,14,21,16.20
2011,09,16,14,22,16.20
2011,09,16,14,23,16.10
2011,09,16,14,24,16.10
2011,09,16,14,25,16.10
2011,09,16,14,26,16.10
2011,09,16,14,27,16.10
2011,09,16,14,28,16.10
2011,09,16,14,29,16.10
2011,09,16,14,30,16.10
2011,09,16,14,31,16.10
2011,09,16,14,32,16.10
2011,09,16,14,33,16.10
2011,09,16,14,34,16.10
2011,09,16,14,35,16.10
2011,09,16,14,36,16.00
2011,09,16,14,37,15.90
2011,09,16,14,38,15.90
2011,09,16,14,39,15.80
2011,09,16,14,40,15.80
2011,09,16,14,41,15.80
2011,09,16,14,42,15.80
2011,09,16,14,43,15.80
2011,09,16,14,44,15.80
2011,09,16,14,45,15.80
2011,09,16,14,46,15.80
2011,09,16,14,47,15.80
2011,09,16,14,48,15.80
2011,09,16,14,49,15.80
2011,09,16,14,50,15.80
2011,09,16,14,51,15.90
2011,09,16,14,52,15.90
2011,09,16,14,53,16.00
2011,09,16,14,54,16.10
2011,09,16,14,55,16.10
2011,09,16,14,56,16.10
2011,09,16,14,57,16.10
2011,09,16,14,58,16.20
2011,09,16,14,59,16.20
2011,09,16,15,00,16.20
2011,09,16,15,01,16.20
2011,09,16,15,02,16.20
2011,09,16,15,03,16.20
2011,09,16,15,04,16.30
2011,09,16,15,05,16.30
2011,09,16,15,06,16.30
2011,09,16,15,07,16.40
2011,09,16,15,08,16.40
2011,09,16,15,09,16.40
2011,09,16,15,10,16.40
2011,09,16,15,11,16.40
2011,09,16,15,12,16.40
2011,09,16,15,13,16.40
2011,09,16,15,14,16.30
2011,09,16,15,15,16.30
2011,09,16,15,16,16.30
2011,09,16,15,17,16.20
2011,09,16,15,18,16.20
2011,09,16,15,19,16.10
2011,09,16,15,20,16.10
2011,09,16,15,21,16.10
2011,09,16,15,22,16.10
2011,09,16,15,23,16.10
2011,09,16,15,24,16.10
2011,09,16,15,25,16.10
2011,09,16,15,26,16.00
2011,09,16,15,27,15.90
2011,09,16,15,28,15.90
2011,09,16,15,29,15.90
2011,09,16,15,30,16.00
2011,09,16,15,31,16.10
2011,09,16,15,32,16.10
2011,09,16,15,33,16.10
2011,09,16,15,34,16.10
2011,09,16,15,35,16.10
2011,09,16,15,36,16.10
2011,09,16,15,37,16.10
2011,09,16,15,38,16.10
2011,09,16,15,39,16.10
2011,09,16,15,40,16.10
2011,09,16,15,41,16.10
2011,09,16,15,42,16.10
2011,09,16,15,43,16.10
2011,09,16,15,44,16.10
2011,09,16,15,45,16.10
2011,09,16,15,46,16.10
2011,09,16,15,47,16.20
2011,09,16,15,48,16.20
2011,09,16,15,49,16.20
2011,09,16,15,50,16.30
2011,09,16,15,51,16.30
2011,09,16,15,52,16.40
2011,09,16,15,53,16.40
2011,09,16,15,54,16.40
2011,09,16,15,55,16.50
2011,09,16,15,56,16.60
2011,09,16,15,57,16.60
2011,09,16,15,58,16.60
2011,09,16,15,59,16.60
2011,09,16,16,00,16.60
2011,09,16,16,01,16.70
2011,09,16,16,02,16.70
2011,09,16,16,03,16.70
2011,09,16,16,04,16.70
2011,09,16,16,05,16.70
2011,09,16,16,06,16.70
2011,09,16,16,07,16.70
2011,09,16,16,08,16.70
2011,09,16,16,09,16.60
2011,09,16,16,10,16.60
2011,09,16,16,11,16.60
2011,09,16,16,12,16.60
2011,09,16,16,13,16.60
2011,09,16,16,14,16.50
2011,09,16,16,15,16.40
2011,09,16,16,16,16.40
2011,09,16,16,17,16.40
2011,09,16,16,18,16.40
2011,09,16,16,19,16.40
2011,09,16,16,20,16.40
2011,09,16,16,21,16.40
2011,09,16,16,22,16.40
2011,09,16,16,23,16.40
2011,09,16,16,24,16.40
2011,09,16,16,25,16.40
2011,09,16,16,26,16.30
2011,09,16,16,27,16.30
2011,09,16,16,28,16.30
2011,09,16,16,29,16.30
2011,09,16,16,30,16.30
2011,09,16,16,31,16.30
2011,09,16,16,32,16.30
2011,09,16,16,33,16.30
2011,09,16,16,34,16.30
2011,09,16,16,35,16.30
2011,09,16,16,36,16.30
2011,09,16,16,37,16.20
2011,09,16,16,38,16.20
2011,09,16,16,39,16.20
2011,09,16,16,40,16.20
2011,09,16,16,41,16.20
2011,09,16,16,42,16.20
2011,09,16,16,43,16.20
2011,09,16,16,44,16.20
2011,09,16,16,45,16.20
2011,09,16,16,46,16.20
2011,09,16,16,47,16.20
2011,09,16,16,48,16.20
2011,09,16,16,49,16.20
2011,09,16,16,50,16.20
2011,09,16,16,51,16.20
2011,09,16,16,52,16.20
2011,09,16,16,53,16.20
2011,09,16,16,54,16.10
2011,09,16,16,55,16.10
2011,09,16,16,56,16.10
2011,09,16,16,57,16.10
2011,09,16,16,58,16.10
2011,09,16,16,59,16.10
2011,09,16,17,00,16.10
2011,09,16,17,01,16.10
2011,09,16,17,02,16.10
2011,09,16,17,03,16.10
2011,09,16,17,04,16.10
2011,09,16,17,05,16.10
2011,09,16,17,06,16.10
